Flushing, NY

8:56 AM EDT on August 25, 2016 (GMT -0400)
La Guardia

Weather History for KLGA - October, 2011

Change the Weather History Date:

Thursday, October 27, 2011

  Actual Average Record
Temperature  
Mean Temperature 51 °F 54 °F  
Max Temperature 61 °F 61 °F 79 °F (1963)
Min Temperature 40 °F 48 °F 33 °F (1976)
Degree Days  
Heating Degree Days 14 11  
Month to date heating degree days 135 191  
Since 1 July heating degree days 154 226  
Cooling Degree Days 0 0  
Month to date cooling degree days 24 20  
Year to date cooling degree days 1375 1210  
Moisture  
Dew Point 46 °F    
Average Humidity 79    
Maximum Humidity 93    
Minimum Humidity 64    
Precipitation  
Precipitation 0.58 in 0.11 in 1.76 in (2003)
Month to date precipitation 2.78 3.32  
Year to date precipitation 56.79 37.30  
Snow  
Snow 0.00 in 0.00 in - ()
Month to date snowfall 0.0 0.0  
Since 1 July snowfall 0.0 0.0  
Snow Depth 0.00 in    
Sea Level Pressure  
Sea Level Pressure 29.68 in    
Wind  
Wind Speed 12 mph (NNE)    
Max Wind Speed 26 mph    
Max Gust Speed 33 mph    
Visibility 6 miles    
Events Rain    
T = Trace of Precipitation, MM = Missing Value Source: NWS Daily Summary

Daily Weather History Graph

Daily Weather History Graph

Search for Another Location

Airport or City:

Trip Planner

Search our weather history database for the weather conditions in past years. The results will help you decide how hot, cold, wet, or windy it might be!

Date:

Astronomy

Oct. 27, 2011 Rise Set
Actual Time 7:19 AM EDT 5:58 PM EDT
Civil Twilight 6:51 AM EDT 6:26 PM EDT
Nautical Twilight 6:19 AM EDT 6:58 PM EDT
Astronomical Twilight 5:47 AM EDT 7:30 PM EDT
Moon 8:20 AM EDT (10/27) 6:24 PM EDT (10/27)
Length of Visible Light 11h 34m
Length of Day
10h 38m
New Moon, 1% of the Moon is Illuminated
Oct 27
New Moon
Nov 2
First Quarter
Nov 10
Full
Nov 18
Last Quarter
Nov 25
New

Hourly Weather History & Observations

Time (EDT) Temp. Windchill Dew Point Humidity Pressure Visibility Wind Dir Wind Speed Gust Speed Precip Events Conditions
12:51 AM 60.1 °F - 48.9 °F 67% 29.72 in 10.0 mi SSW 6.9 mph - N/A   Mostly Cloudy
1:51 AM 60.1 °F - 48.9 °F 67% 29.70 in 10.0 mi Calm Calm - N/A   Mostly Cloudy
2:51 AM 60.1 °F - 50.0 °F 69% 29.68 in 10.0 mi SSW 4.6 mph - N/A   Overcast
3:51 AM 59.0 °F - 51.1 °F 75% 29.66 in 9.0 mi SW 6.9 mph - 0.01 in Rain Light Rain
4:42 AM 57.2 °F - 53.6 °F 88% 29.66 in 5.0 mi SSW 6.9 mph - 0.05 in Rain Rain
4:51 AM 57.0 °F - 53.1 °F 87% 29.66 in 5.0 mi SW 8.1 mph - 0.07 in Rain Rain
5:48 AM 57.2 °F - 53.6 °F 88% 29.66 in 9.0 mi SW 5.8 mph - 0.03 in Rain Light Rain
5:51 AM 57.0 °F - 54.0 °F 89% 29.66 in 9.0 mi SSW 4.6 mph - 0.03 in Rain Light Rain
6:51 AM 57.2 °F - 53.6 °F 88% 29.65 in 10.0 mi Calm Calm - N/A Rain Light Rain
7:33 AM 57.2 °F - 55.4 °F 94% 29.66 in 6.0 mi Calm Calm - 0.00 in Rain Light Rain
7:45 AM 57.2 °F - 53.6 °F 88% 29.66 in 7.0 mi NW 5.8 mph - 0.01 in Rain Light Rain
7:51 AM 57.9 °F - 54.0 °F 87% 29.66 in 7.0 mi NW 5.8 mph - 0.01 in Rain Light Rain
8:02 AM 57.2 °F - 53.6 °F 88% 29.67 in 7.0 mi NNW 6.9 mph - 0.00 in Rain Light Rain
8:24 AM 55.4 °F - 51.8 °F 88% 29.67 in 4.0 mi North 9.2 mph - 0.01 in Rain Light Rain
8:51 AM 54.0 °F - 51.1 °F 90% 29.68 in 2.5 mi North 8.1 mph - 0.06 in Rain Rain
9:21 AM 53.6 °F - 51.8 °F 94% 29.67 in 7.0 mi NNE 8.1 mph - 0.02 in Rain Light Rain
9:28 AM 53.6 °F - 51.8 °F 94% 29.67 in 6.0 mi NNE 8.1 mph - 0.02 in Rain Light Rain
9:51 AM 53.1 °F - 51.1 °F 93% 29.68 in 6.0 mi NE 13.8 mph 19.6 mph 0.03 in Rain Light Rain
10:18 AM 51.8 °F - 48.2 °F 88% 29.68 in 2.5 mi NE 18.4 mph - 0.01 in Rain Light Rain
10:36 AM 51.8 °F - 48.2 °F 88% 29.67 in 3.0 mi NE 15.0 mph - 0.01 in Rain Light Rain
10:47 AM 51.8 °F - 48.2 °F 88% 29.67 in 4.0 mi NE 16.1 mph 26.5 mph 0.01 in Rain Light Rain
10:51 AM 51.8 °F - 48.2 °F 88% 29.67 in 4.0 mi NE 18.4 mph 26.5 mph N/A Rain Light Rain
11:09 AM 51.8 °F - 48.2 °F 88% 29.67 in 5.0 mi NE 15.0 mph - 0.01 in Rain Light Rain
11:49 AM 51.8 °F - 46.4 °F 82% 29.65 in 6.0 mi NE 19.6 mph - 0.02 in   Overcast
11:51 AM 50.0 °F - 46.0 °F 86% 29.65 in 6.0 mi NE 19.6 mph - 0.02 in   Overcast
12:38 PM 50.0 °F - 46.4 °F 87% 29.64 in 4.0 mi NE 16.1 mph - 0.00 in Rain Light Rain
12:41 PM 50.0 °F - 46.4 °F 87% 29.64 in 4.0 mi NE 15.0 mph - 0.00 in Rain Light Rain
12:51 PM 48.9 °F - 46.0 °F 90% 29.64 in 4.0 mi NNE 10.4 mph - 0.00 in Rain Light Rain
1:03 PM 48.2 °F - 46.4 °F 93% 29.63 in 2.0 mi NE 11.5 mph 19.6 mph 0.00 in Rain Light Rain
1:12 PM 48.2 °F - 46.4 °F 93% 29.64 in 1.8 mi NNE 9.2 mph - 0.01 in Rain Light Rain
1:31 PM 48.2 °F - 46.4 °F 93% 29.64 in 2.5 mi North 9.2 mph - 0.04 in Rain Rain
1:38 PM 48.2 °F - 46.4 °F 93% 29.64 in 2.5 mi NNE 10.4 mph - 0.07 in Rain Rain
1:51 PM 48.0 °F - 45.0 °F 89% 29.64 in 2.5 mi NNE 11.5 mph - 0.08 in Rain Light Rain
2:38 PM 48.2 °F - 44.6 °F 87% 29.62 in 7.0 mi NNE 13.8 mph - 0.02 in Rain Light Rain
2:51 PM 48.0 °F - 43.0 °F 83% 29.62 in 7.0 mi NE 13.8 mph 23.0 mph 0.02 in Rain Light Rain
3:39 PM 46.4 °F 40.7 °F 42.8 °F 87% 29.62 in 2.0 mi NE 12.7 mph - 0.01 in Rain Rain
3:51 PM 46.0 °F 39.6 °F 42.1 °F 86% 29.61 in 2.0 mi NE 15.0 mph - 0.02 in Rain Light Rain
4:09 PM 46.4 °F 40.7 °F 42.8 °F 87% 29.60 in 3.0 mi NNE 12.7 mph - 0.02 in Rain Rain
4:47 PM 46.4 °F 41.1 °F 42.8 °F 87% 29.61 in 2.0 mi NNE 11.5 mph - 0.05 in Rain Light Rain
4:51 PM 46.0 °F 39.9 °F 42.1 °F 86% 29.61 in 2.0 mi NE 13.8 mph - 0.06 in Rain Light Rain
5:10 PM 46.4 °F 41.5 °F 42.8 °F 87% 29.61 in 3.0 mi NE 10.4 mph 19.6 mph 0.01 in   Overcast
5:47 PM 46.4 °F 40.7 °F 42.8 °F 87% 29.65 in 2.0 mi North 12.7 mph - 0.01 in Rain Light Rain
5:51 PM 46.9 °F - 43.0 °F 86% 29.65 in 2.0 mi North 13.8 mph - 0.01 in Rain Light Rain
6:47 PM 42.8 °F 34.0 °F 39.2 °F 87% 29.70 in 3.0 mi North 20.7 mph 28.8 mph 0.06 in Rain Rain
6:51 PM 42.1 °F 33.6 °F 37.9 °F 85% 29.71 in 3.0 mi North 18.4 mph 28.8 mph 0.08 in Rain Rain
7:42 PM 39.2 °F 30.5 °F 37.4 °F 93% 29.75 in 7.0 mi North 16.1 mph 23.0 mph 0.05 in Rain Light Rain
7:51 PM 39.9 °F 32.1 °F 36.0 °F 86% 29.76 in 7.0 mi North 13.8 mph 21.9 mph 0.05 in Rain Light Rain
8:51 PM 41.0 °F 33.1 °F 36.0 °F 82% 29.81 in 10.0 mi North 15.0 mph - 0.00 in   Overcast
9:13 PM 41.0 °F 31.6 °F 35.6 °F 81% 29.83 in 10.0 mi North 20.7 mph 26.5 mph N/A   Overcast
9:51 PM 39.9 °F 29.5 °F 35.1 °F 83% 29.88 in 10.0 mi North 24.2 mph 32.2 mph N/A   Overcast
10:21 PM 39.2 °F 29.0 °F 33.8 °F 81% 29.90 in 10.0 mi North 21.9 mph 32.2 mph N/A   Overcast
10:51 PM 41.0 °F 31.9 °F 34.0 °F 76% 29.91 in 10.0 mi North 19.6 mph 28.8 mph N/A   Overcast
11:51 PM 39.9 °F 31.4 °F 33.1 °F 77% 29.95 in 10.0 mi North 16.1 mph 29.9 mph N/A   Scattered Clouds